Date String (YYYY-MM-DD hh:mm:ss) UTC,Instrument flags,absolute air pressure of the measurement (hPa),sample flow rate (lpm),inlet stack bypass flow (lpm),air temperature of the measurement (°C),ambient temperature measured by the external sensor (°C),aerosol sample conditioner tube jacket temperature (°C),OPC LED temperature (°C),internal box temperature (°C),relative humidity of the measurement (%),span deviation,mass concentration of particles derived from Lorenz-Mie calculation of OPC scattering (μg/m³),mass concentration of particles derived from Lorenz-Mie calculation of OPC scattering (μg/m³),mass concentration of particles derived from Lorenz-Mie calculation of OPC scattering (μg/m³)
DateTimeUTC,F1_M11,P_M11,Q1_M11,Q2_M11,T1_M11,T2_M11,T3_M11,T4_M11,T5_M11,U1_M11,ZSPAN_M11,X0_M11,X2_M11,X1_M11
2023-08-05 19:00:00,SystemResetWarning,0834.1,4.99,000.00,030.0,027.2,000.0,038.3,031.1,34.0,0000.5,0012.55,0006.84,0006.22
2023-08-05 19:01:00,SystemResetWarning,0834.0,5.00,000.00,030.0,026.0,000.0,038.2,030.8,33.7,0000.6,0013.18,0006.86,0006.23
2023-08-05 19:02:00,SystemResetWarning,0834.0,5.01,000.00,029.9,025.6,000.0,038.1,030.7,33.4,0000.4,0013.26,0006.90,0006.23
2023-08-05 19:03:00,SystemResetWarning,0834.0,5.01,000.00,029.8,025.8,000.0,038.1,030.6,34.2,0000.1,0012.98,0006.92,0006.22
2023-08-05 19:04:00,SystemResetWarning,0834.0,5.00,000.00,029.7,026.2,000.0,038.1,030.7,34.7,0000.4,0013.48,0006.92,0006.23
2023-08-05 19:05:00,SystemResetWarning,0834.0,4.99,000.00,029.7,026.6,000.0,038.2,030.8,34.1,0000.3,0013.53,0006.94,0006.21
2023-08-05 19:06:00,SystemResetWarning,0834.0,5.00,000.00,029.7,026.9,000.0,038.2,030.9,34.2,0000.1,0013.49,0006.94,0006.21
2023-08-05 19:07:00,SystemResetWarning,0834.0,5.00,000.00,029.7,027.2,000.0,038.2,031.0,34.5,-000.0,0013.63,0006.97,0006.20
2023-08-05 19:08:00,SystemResetWarning,0834.0,4.99,000.00,029.7,027.5,000.0,038.2,031.1,35.1,-000.1,0013.70,0006.98,0006.20
2023-08-05 19:09:00,SystemResetWarning,0834.0,5.03,000.00,029.9,027.7,000.0,038.2,031.2,34.4,0000.2,0013.68,0006.97,0006.21
2023-08-05 19:10:00,SystemResetWarning,0834.0,4.97,000.00,030.0,027.3,000.0,038.1,031.2,34.5,0000.3,0013.76,0006.99,0006.20
2023-08-05 19:11:00,SystemResetWarning,0833.9,5.03,000.00,030.1,026.0,000.0,038.0,031.0,35.0,-000.4,0013.69,0006.93,0006.18
2023-08-05 19:12:00,SystemResetWarning,0833.9,5.00,000.00,030.2,025.6,000.0,038.0,030.9,34.9,-000.6,0013.39,0006.91,0006.16
2023-08-05 19:13:00,SystemResetWarning,0834.0,4.99,000.00,030.3,025.8,000.0,038.0,030.8,33.8,-000.6,0013.21,0006.87,0006.14
2023-08-05 19:14:00,SystemResetWarning,0834.0,5.00,000.00,030.3,026.2,000.0,038.1,030.9,33.6,-000.2,0013.22,0006.84,0006.13
2023-08-05 19:15:00,SystemResetWarning,0833.9,5.00,000.00,030.4,026.6,000.0,038.2,031.0,34.0,0000.1,0011.99,0006.81,0006.11
2023-08-05 19:16:00,SystemResetWarning,0833.9,5.00,000.00,030.4,026.9,000.0,038.3,031.1,34.4,0000.2,0011.82,0006.79,0006.11
2023-08-05 19:17:00,SystemResetWarning,0834.0,4.99,000.00,030.4,027.2,000.0,038.3,031.1,34.4,0000.1,0011.94,0006.79,0006.10
2023-08-05 19:18:00,SystemResetWarning,0834.0,5.00,000.00,030.5,027.5,000.0,038.4,031.2,33.9,0000.0,0012.21,0006.81,0006.11
2023-08-05 19:19:00,SystemResetWarning,0834.1,5.00,000.00,030.5,027.8,000.0,038.5,031.3,34.4,0000.3,0012.75,0006.78,0006.11
2023-08-05 19:20:00,SystemResetWarning,0834.1,4.99,000.00,030.5,027.6,000.0,038.5,031.3,34.9,0000.1,0013.05,0006.77,0006.09
2023-08-05 19:21:00,SystemResetWarning,0834.1,5.05,000.00,030.6,026.0,000.0,038.4,031.1,35.0,-000.1,0013.00,0006.74,0006.08
2023-08-05 19:22:00,SystemResetWarning,0834.1,4.96,000.00,030.7,025.0,000.0,038.3,031.0,34.3,0000.2,0013.03,0006.72,0006.08
2023-08-05 19:23:00,SystemResetWarning,0834.1,5.01,000.00,030.7,024.9,000.0,038.2,030.8,34.1,0000.1,0012.92,0006.73,0006.07
2023-08-05 19:24:00,SystemResetWarning,0834.1,5.01,000.00,030.6,025.3,000.0,038.3,030.7,34.7,0000.0,0012.87,0006.73,0006.07
2023-08-05 19:25:00,SystemResetWarning,0834.1,4.97,000.00,030.6,025.7,000.0,038.4,030.8,34.9,0000.7,0013.47,0006.72,0006.07
2023-08-05 19:26:00,SystemResetWarning,0834.1,5.04,000.00,030.6,026.2,000.0,038.5,030.9,34.6,0000.8,0013.53,0006.71,0006.06
2023-08-05 19:27:00,SystemResetWarning,0834.1,4.97,000.00,030.7,026.6,000.0,038.5,031.1,33.3,0000.9,0013.92,0006.72,0006.06
2023-08-05 19:28:00,SystemResetWarning,0834.1,5.02,000.00,030.8,027.0,000.0,038.6,031.2,33.7,0000.8,0014.20,0006.76,0006.07
2023-08-05 19:29:00,SystemResetWarning,0834.1,5.01,000.00,030.8,027.3,000.0,038.6,031.2,33.6,0001.0,0014.07,0006.72,0006.06
2023-08-05 19:30:00,SystemResetWarning,0834.0,4.99,000.00,030.9,027.6,000.0,038.7,031.3,33.4,0001.1,0014.13,0006.70,0006.05
2023-08-05 19:31:00,SystemResetWarning,0834.0,5.00,000.00,030.9,027.8,000.0,038.7,031.3,33.4,0001.5,0013.96,0006.67,0006.04
2023-08-05 19:32:00,SystemResetWarning,0834.0,4.99,000.00,030.9,027.8,000.0,038.8,031.4,33.9,0000.8,0014.00,0006.68,0006.04
2023-08-05 19:33:00,SystemResetWarning,0833.9,5.00,000.00,031.0,026.6,000.0,038.7,031.2,32.9,0000.9,0013.75,0006.69,0006.04
2023-08-05 19:34:00,SystemResetWarning,0833.9,5.01,000.00,030.9,025.8,000.0,038.6,031.1,32.9,0000.1,0012.97,0006.69,0006.03
2023-08-05 19:35:00,SystemResetWarning,0834.0,5.01,000.00,030.8,025.8,000.0,038.6,030.9,33.7,0000.2,0013.08,0006.73,0006.05
2023-08-05 19:36:00,SystemResetWarning,0834.0,5.00,000.00,030.7,026.1,000.0,038.7,030.9,34.3,0000.0,0012.58,0006.77,0006.06
2023-08-05 19:37:00,SystemResetWarning,0833.9,4.99,000.00,030.6,026.5,000.0,038.7,031.0,33.9,0000.6,0012.68,0006.81,0006.08
2023-08-05 19:38:00,SystemResetWarning,0834.0,5.00,000.00,030.6,026.9,000.0,038.7,031.1,33.5,0000.8,0012.12,0006.85,0006.13
2023-08-05 19:39:00,SystemResetWarning,0834.0,5.00,000.00,030.6,027.2,000.0,038.8,031.2,33.4,0000.7,0011.90,0006.87,0006.16
2023-08-05 19:40:00,SystemResetWarning,0834.0,5.00,000.00,030.6,027.5,000.0,038.8,031.3,33.1,0000.7,0012.88,0006.89,0006.18
2023-08-05 19:41:00,SystemResetWarning,0834.0,4.99,000.00,030.6,027.7,000.0,038.8,031.3,33.5,0000.3,0012.78,0006.96,0006.23
2023-08-05 19:42:00,SystemResetWarning,0834.0,4.99,000.00,030.6,027.4,000.0,038.7,031.3,34.2,0000.4,0012.60,0007.06,0006.28
2023-08-05 19:43:00,SystemResetWarning,0834.0,5.00,000.00,030.6,025.8,000.0,038.6,031.0,33.9,0000.3,0013.09,0007.13,0006.34
2023-08-05 19:44:00,SystemResetWarning,0834.0,4.99,000.00,030.5,024.9,000.0,038.5,030.9,34.6,-000.2,0013.36,0007.20,0006.38
2023-08-05 19:45:00,SystemResetWarning,0834.0,5.03,000.00,030.4,024.9,000.0,038.4,030.7,34.6,0000.5,0013.43,0007.23,0006.43
2023-08-05 19:46:00,SystemResetWarning,0834.0,4.97,000.00,030.3,025.3,000.0,038.4,030.6,34.9,0001.1,0013.52,0007.25,0006.46
2023-08-05 19:47:00,SystemResetWarning,0834.0,5.00,000.00,030.2,025.8,000.0,038.5,030.7,34.8,0001.0,0013.52,0007.25,0006.48
2023-08-05 19:48:00,SystemResetWarning,0834.0,5.02,000.00,030.2,026.2,000.0,038.5,030.9,34.7,0000.7,0013.33,0007.25,0006.49
2023-08-05 19:49:00,SystemResetWarning,0834.1,4.99,000.00,030.2,026.7,000.0,038.5,031.0,34.8,0000.5,0013.31,0007.24,0006.46
2023-08-05 19:50:00,SystemResetWarning,0834.0,5.00,000.00,030.3,027.0,000.0,038.5,031.1,35.2,0000.9,0013.23,0007.23,0006.44
2023-08-05 19:51:00,SystemResetWarning,0834.1,5.01,000.00,030.5,027.3,000.0,038.5,031.2,34.8,0001.1,0012.11,0007.27,0006.43
2023-08-05 19:52:00,SystemResetWarning,0834.1,4.98,000.00,030.7,027.6,000.0,038.5,031.4,34.4,0001.9,0011.95,0007.19,0006.41
2023-08-05 19:53:00,SystemResetWarning,0834.0,5.02,000.00,030.8,027.8,000.0,038.6,031.4,34.2,0001.6,0012.00,0007.13,0006.37
2023-08-05 19:54:00,SystemResetWarning,0834.0,5.00,000.00,030.9,028.0,000.0,038.6,031.4,33.6,0001.8,0011.49,0007.07,0006.34
2023-08-05 19:55:00,SystemResetWarning,0834.0,4.98,000.00,030.9,027.2,000.0,038.6,031.4,33.6,0001.9,0011.32,0007.03,0006.31
2023-08-05 19:56:00,SystemResetWarning,0834.0,5.00,000.00,030.9,025.5,000.0,038.5,031.1,33.8,0001.7,0011.35,0007.08,0006.30
2023-08-05 19:57:00,SystemResetWarning,0834.0,5.01,000.00,030.9,024.8,000.0,038.4,030.9,31.9,0000.8,0011.87,0007.11,0006.29
2023-08-05 19:58:00,SystemResetWarning,0833.9,5.01,000.00,030.7,024.9,000.0,038.5,030.7,27.4,0000.3,0012.45,0007.13,0006.29
2023-08-05 19:59:00,SystemResetWarning,0834.0,5.01,000.00,030.6,025.3,000.0,038.5,030.7,28.6,0000.4,0012.43,0007.13,0006.28
